This is the latest recevied weather packets stored in our database for station/object W7TJC. If no packets are shown the sender has not sent any weather packets the latest 10 day(s).
| Time | Temp. | Humidity | Pressure | Rain* | Wind** | Luminosity | Snow |
|---|---|---|---|---|---|---|---|
| 1777863418 | 23.33° C | 38% | 1010.5 hPa | 0 mm | - | 2 W/m² | - |
| 1777863114 | 23.89° C | 37% | 1010.5 hPa | 0 mm | - | 3 W/m² | - |
| 1777862812 | 23.89° C | 37% | 1010.5 hPa | 0 mm | - | 3 W/m² | - |
| 1777862508 | 23.89° C | 37% | 1010.5 hPa | 0 mm | - | 3 W/m² | - |
| 1777862205 | 23.89° C | 37% | 1010.5 hPa | 0 mm | - | 4 W/m² | - |
| 1777861901 | 24.44° C | 36% | 1010.3 hPa | 0 mm | - | 6 W/m² | - |
| 1777861597 | 24.44° C | 36% | 1010.5 hPa | 0 mm | - | 6 W/m² | - |
| 1777861293 | 24.44° C | 36% | 1010.4 hPa | 0 mm | - | 6 W/m² | - |
| 1777860992 | 25° C | 36% | 1010.6 hPa | 0 mm | - | 7 W/m² | - |
| 1777860688 | 25° C | 36% | 1010.7 hPa | 0 mm | - | 7 W/m² | - |
| 1777860385 | 25° C | 36% | 1010.6 hPa | 0 mm | - | 8 W/m² | - |
| 1777860081 | 25° C | 36% | 1010.6 hPa | 0 mm | - | 8 W/m² | - |
| 1777859778 | 25° C | 35% | 1010.7 hPa | 0 mm | - | 8 W/m² | - |
| 1777859474 | 25° C | 35% | 1010.5 hPa | 0 mm | - | 9 W/m² | - |
| 1777859170 | 25.56° C | 35% | 1010.7 hPa | 0 mm | - | 9 W/m² | - |
| 1777858867 | 25.56° C | 35% | 1010.6 hPa | 0 mm | - | 11 W/m² | - |
| 1777858564 | 25.56° C | 35% | 1010.6 hPa | 0 mm | - | 19 W/m² | - |
| 1777858261 | 25.56° C | 35% | 1010.7 hPa | 0 mm | - | 19 W/m² | - |
| 1777857959 | 25.56° C | 35% | 1010.7 hPa | 0 mm | - | 11 W/m² | - |
| 1777857657 | 25.56° C | 35% | 1010.9 hPa | 0 mm | - | 11 W/m² | - |
| 1777857353 | 25.56° C | 36% | 1010.9 hPa | 0 mm | - | 11 W/m² | - |
| 1777857049 | 25.56° C | 36% | 1010.9 hPa | 0 mm | - | 13 W/m² | - |
| 1777856745 | 25.56° C | 36% | 1010.9 hPa | 0 mm | - | 12 W/m² | - |
| 1777856441 | 25.56° C | 36% | 1010.9 hPa | 0 mm | - | 12 W/m² | - |
| 1777856138 | 25.56° C | 36% | 1011 hPa | 0 mm | - | 13 W/m² | - |
* Rain latest hour (hover to see other rain measurements)
** Current wind speed in m/s (hover to see current wind gust speed)